[[{"header":{"parameterUnit":"m.s-1","parameterCategory":1,"la1":30.2991,"la2":30.254,"lo1":-89.0895,"lo2":-89.0444,"dy":0.0017,"dx":0.0017,"nx":28,"ny":28,"refTime":"2025-01-03T03:00:00:Z","depth":0,"parameterNumber":2,"parameterNumberName":"U-component_of_WINDS"},"data":[0,0,0,0,0,0,0,0,0,0,0,0,0,0,0,0,0,0,0,0,0,0,0,0,0,0,0,0,0,0,0,0,0,0,0,0,0,0,0,0,0,0,0,0,0,0,0,0,0,0,0,0,0,0,0,0,0,0,-2.6689,-2.6689,0,-2.6728,-2.6729,-2.6729,-2.6611,-2.6607,-2.6604,-2.66,-2.6644,-2.6648,-2.6653,0,0,0,0,0,0,0,0,0,0,0,0,0,-2.6514,-2.6518,-2.6689,-2.6689,-2.669,-2.6728,-2.6729,-2.6729,-2.6612,-2.6607,-2.6603,-2.6599,-2.6643,-2.6648,-2.6653,0,0,0,0,0,0,0,0,0,0,0,0,0,-2.6575,-2.6519,-2.6689,-2.6635,-2.6631,-2.6728,-2.6729,-2.673,-2.6612,-2.6607,-2.6602,-2.6596,-2.6641,-2.6647,-2.6654,-2.6805,0,0,-2.6675,-2.6678,0,0,0,0,0,0,0,0,-2.6572,-2.6582,-2.6643,-2.6639,-2.6635,-2.6659,-2.6683,-2.6755,-2.6614,-2.662,-2.66,-2.6594,-2.6654,-2.6659,-2.6679,-2.6807,-2.6809,-2.6676,-2.668,-2.6683,-2.6685,0,0,0,0,0,0,0,-2.6568,-2.658,-2.6704,-2.6644,-2.6639,-2.6611,-2.6613,-2.6696,-2.6667,-2.6619,-2.661,-2.6616,-2.665,-2.6672,-2.6679,-2.681,-2.6675,-2.6682,-2.6686,-2.6688,-2.7066,-2.7072,0,0,0,0,0,0,-2.657,-2.6577,-2.6703,-2.6706,-2.6589,-2.6618,-2.6621,-2.6657,-2.6666,-2.6662,-2.6621,-2.6611,-2.6663,-2.6671,-2.668,-2.6859,-2.6683,-2.6689,-2.6693,-2.706,-2.7067,-2.7074,0,0,0,0,0,0,-2.6567,-2.6583,-2.6702,-2.6639,-2.6652,-2.6627,-2.6668,-2.666,-2.6682,-2.6667,-2.6662,-2.6649,-2.6659,-2.667,-2.6775,-2.6859,-2.6692,-2.6698,-2.7053,-2.7062,-2.7071,-2.7217,0,0,0,0,0,0,-2.6562,-2.6582,-2.6639,-2.6641,-2.6656,-2.6796,-2.6673,-2.6665,-2.6694,-2.6681,-2.6692,-2.6688,-2.6656,-2.6766,-2.6782,-2.6865,-2.6704,-2.7046,-2.7057,-2.7068,-2.7205,-2.723,-2.7252,0,0,0,0,0,-2.6556,-2.6679,-2.6642,-2.6658,-2.6726,-2.6801,-2.6809,-2.6769,-2.6701,-2.6758,-2.6749,-2.6688,-2.6846,-2.6777,-2.6795,-2.6881,-2.704,-2.7054,-2.7067,-2.7195,-2.7225,-2.7251,0,0,0,0,0,0,-2.6688,-2.6678,-2.6637,-2.6764,-2.6784,-2.6781,-2.6852,-2.6802,-2.6843,-2.6829,-2.6777,-2.6781,-2.6896,-2.6898,-2.6822,-2.7028,-2.6932,-2.6949,-2.7023,-2.7052,-2.7075,-2.7073,-2.6709,0,0,0,0,0,-2.6732,-2.6793,-2.6781,-2.6894,-2.6906,-2.6878,-2.6909,-2.6875,-2.6894,-2.6903,-2.6901,-2.6922,-2.6977,-2.7014,-2.7063,-2.7204,-2.7206,-2.7272,-2.7295,-2.7314,-2.7331,-2.7407,-2.7437,-2.7118,-2.7117,-2.7117,0,0,-2.6823,-2.6825,-2.6867,-2.692,-2.6932,-2.6998,-2.6886,-2.6959,-2.7008,-2.6914,-2.7013,-2.7013,-2.7033,-2.7157,-2.7212,-2.7163,-2.7419,-2.7332,-2.7347,-2.7353,-2.7424,-2.7454,-2.7481,-2.7127,-2.7125,-2.7124,0,0,-2.7023,-2.703,-2.7125,-2.7139,-2.7158,-2.7138,-2.7161,-2.7165,-2.7161,-2.7259,-2.7191,-2.7247,-2.7342,-2.736,-2.7382,-2.7588,-2.7535,-2.7606,-2.7729,-2.7803,-2.7829,-2.7851,-2.7926,-2.7954,-2.7622,-2.7622,-2.7622,0,-2.7135,-2.7229,-2.7181,-2.726,-2.7286,-2.7203,-2.73,-2.7316,-2.735,-2.7371,-2.7315,-2.7433,-2.7441,-2.7568,-2.7619,-2.7638,-2.7664,-2.7605,-2.7829,-2.785,-2.787,-2.7942,-2.797,-2.7631,-2.763,-2.7629,-2.7628,0,-2.7366,-2.7433,-2.7508,-2.7543,-2.7577,-2.7665,-2.7631,-2.7671,-2.7635,-2.7621,-2.7723,-2.7729,-2.7779,-2.7806,-2.7772,-2.793,-2.7899,-2.7837,-2.7739,-2.791,-2.7977,-2.8003,-2.7643,-2.764,-2.7637,-2.7635,0,0,-2.7653,-2.7658,-2.7687,-2.7702,-2.7716,-2.7768,-2.7852,-2.7899,-2.7936,-2.7962,-2.8032,-2.8114,-2.8057,-2.8081,-2.8048,-2.8113,-2.8278,-2.8043,-2.8042,-2.8088,-2.8455,-2.8503,-2.8535,-2.8242,-2.8246,-2.825,-2.8453,0,-2.7851,-2.7994,-2.7953,-2.8098,-2.816,-2.8081,-2.8154,-2.8172,-2.8161,-2.8213,-2.8201,-2.826,-2.8179,-2.8194,-2.8254,-2.8246,-2.8352,-2.823,-2.8308,-2.8312,-2.8308,-2.857,-2.8621,-2.8812,-2.8479,-2.8483,-2.8486,0,-2.8102,-2.8138,-2.8288,-2.8292,-2.8317,-2.8384,-2.8424,-2.8474,-2.8492,-2.848,-2.8507,-2.846,-2.8544,-2.8444,-2.856,-2.8478,-2.8507,-2.8508,-2.8514,-2.8522,-2.8411,-2.8587,-2.8872,-2.8902,-2.8526,-2.8523,-2.852,0,-2.8299,-2.8384,-2.8485,-2.85,-2.8507,-2.8556,-2.8561,-2.8574,-2.8605,-2.8641,-2.8661,-2.8706,-2.8731,-2.8768,-2.8735,-2.8665,-2.8856,-2.8753,-2.885,-2.8851,-2.8896,-2.8894,-2.9192,-2.8911,-2.8911,-2.891,-2.891,0,-2.8526,-2.8622,-2.8573,-2.8636,-2.8741,-2.8693,-2.8798,-2.8795,-2.8807,-2.8868,-2.8802,-2.8861,-2.8813,-2.8868,-2.8842,-2.8943,-2.8954,-2.8948,-2.8941,-2.8955,-2.8957,-2.8976,-2.8963,-2.8918,-2.8916,-2.8915,-2.8913,0,-2.8764,-2.8735,-2.8841,-2.8838,-2.884,-2.8918,-2.8916,-2.8975,-2.8958,-2.9037,-2.9052,-2.9028,-2.9089,-2.9059,-2.9123,-2.9106,-2.9237,-2.921,-2.9231,-2.9225,-2.9324,-2.9316,-2.9647,-2.9689,-2.9379,-2.9382,-2.9385,0,-2.8912,-2.8984,-2.8989,-2.9025,-2.9035,-2.9093,-2.9125,-2.908,-2.9116,-2.9142,-2.9197,-2.9253,-2.9295,-2.9397,-2.9386,-2.9435,-2.941,-2.9523,-2.9417,-2.943,-2.9415,-2.9412,-2.9419,-2.9545,-2.9549,-2.9552,-2.9554,0,-2.9179,-2.9161,-2.9209,-2.9252,-2.9291,-2.9323,-2.9349,-2.9383,-2.9338,-2.9382,-2.9444,-2.9477,-2.9541,-2.9598,-2.9641,-2.9647,-2.9595,-2.9587,-2.9612,-2.9629,-2.9639,-2.9637,-2.9291,-2.958,-2.9577,-2.9576,-2.9574,-2.9573,-2.9378,-2.9439,-2.9452,-2.9507,-2.9522,-2.9548,-2.9603,-2.9594,-2.9644,-2.9693,-2.9663,-2.9736,-2.9753,-2.9804,-2.9817,-2.9874,-2.983,-2.9866,-2.9876,-2.9886,-2.99,-2.9628,-2.9881,-2.9881,-2.988,-2.9879,-2.9879,0,-2.9643,-2.9648,-2.9699,-2.9738,-2.9782,-2.9726,-2.9752,-2.9793,-2.9858,-2.9877,-2.992,-2.9991,-3.0046,-3.0038,-3.0088,-3.0135,-3.0113,-3.015,-3.0147,-3.015,-2.9936,-2.991,-3.0168,-3.0168,-3.0168,-3.0168,-3.0168,-3.0168,-2.9787,-2.9887,-2.987,-2.9977,-2.9981,-3.0051,-3.0071,-3.0095,-3.011,-3.0193,-3.0238,-3.0232,-3.0241,-3.0291,-3.0338,-3.0335,-3.0357,-3.0405,-3.0393,-3.0193,-3.0165,-3.0138,-3.0113,-3.0409,-3.041,-3.0602,-3.0603,-3.0605]},{"header":{"parameterUnit":"m.s-1","parameterCategory":1,"la1":30.2991,"la2":30.254,"lo1":-89.0895,"lo2":-89.0444,"dy":0.0017,"dx":0.0017,"nx":28,"ny":28,"refTime":"2025-01-03T03:00:00:Z","depth":0,"parameterNumber":3,"parameterNumberName":"V-component_of_WINDS"},"data":[0,0,0,0,0,0,0,0,0,0,0,0,0,0,0,0,0,0,0,0,0,0,0,0,0,0,0,0,0,0,0,0,0,0,0,0,0,0,0,0,0,0,0,0,0,0,0,0,0,0,0,0,0,0,0,0,0,0,-3.8199,-3.8199,0,-3.8233,-3.8234,-3.8234,-3.8144,-3.8142,-3.8139,-3.8136,-3.817,-3.8173,-3.8177,0,0,0,0,0,0,0,0,0,0,0,0,0,-3.8052,-3.8055,-3.8199,-3.8199,-3.8199,-3.8233,-3.8234,-3.8234,-3.8145,-3.8142,-3.8138,-3.8135,-3.8169,-3.8173,-3.8177,0,0,0,0,0,0,0,0,0,0,0,0,0,-3.8104,-3.8056,-3.8198,-3.8159,-3.8156,-3.8233,-3.8234,-3.8234,-3.8146,-3.8141,-3.8137,-3.8133,-3.8167,-3.8172,-3.8178,-3.8294,0,0,-3.8194,-3.8196,0,0,0,0,0,0,0,0,-3.8101,-3.8109,-3.8164,-3.8162,-3.8158,-3.818,-3.8194,-3.8254,-3.8147,-3.815,-3.8136,-3.8131,-3.8177,-3.8181,-3.8197,-3.8296,-3.8297,-3.8194,-3.8197,-3.82,-3.8201,0,0,0,0,0,0,0,-3.8098,-3.8107,-3.8212,-3.8165,-3.8162,-3.8139,-3.8141,-3.8205,-3.8186,-3.8149,-3.8142,-3.8148,-3.8174,-3.8192,-3.8197,-3.8298,-3.8194,-3.8199,-3.8202,-3.8204,-3.8494,-3.8498,0,0,0,0,0,0,-3.8099,-3.8105,-3.8211,-3.8213,-3.8119,-3.8145,-3.8148,-3.8178,-3.8185,-3.8182,-3.8152,-3.8144,-3.8185,-3.8191,-3.8198,-3.8334,-3.82,-3.8205,-3.8208,-3.8489,-3.8495,-3.85,0,0,0,0,0,0,-3.8097,-3.811,-3.821,-3.8157,-3.8168,-3.8152,-3.8186,-3.818,-3.8198,-3.8187,-3.8183,-3.8173,-3.8182,-3.819,-3.8271,-3.8334,-3.8207,-3.8212,-3.8484,-3.8491,-3.8497,-3.8609,0,0,0,0,0,0,-3.8093,-3.8109,-3.8154,-3.8159,-3.8172,-3.8284,-3.819,-3.8184,-3.8207,-3.8198,-3.8206,-3.8204,-3.8179,-3.8264,-3.8276,-3.8339,-3.8216,-3.8478,-3.8487,-3.8495,-3.86,-3.8619,-3.8636,0,0,0,0,0,-3.8088,-3.8184,-3.8157,-3.817,-3.8228,-3.8288,-3.8294,-3.8265,-3.8213,-3.8257,-3.825,-3.8204,-3.8325,-3.8273,-3.8286,-3.8352,-3.8474,-3.8485,-3.8494,-3.8592,-3.8615,-3.8635,0,0,0,0,0,0,-3.8186,-3.8184,-3.8154,-3.8255,-3.8272,-3.8272,-3.8328,-3.8291,-3.8322,-3.8312,-3.8272,-3.8275,-3.8363,-3.8365,-3.8307,-3.8464,-3.8391,-3.8404,-3.846,-3.8482,-3.85,-3.8498,-3.822,0,0,0,0,0,-3.822,-3.827,-3.8264,-3.8354,-3.8364,-3.8345,-3.837,-3.8345,-3.8361,-3.8368,-3.8367,-3.8384,-3.8425,-3.8454,-3.8492,-3.86,-3.86,-3.8651,-3.8669,-3.8684,-3.8696,-3.8752,-3.8775,-3.8533,-3.8533,-3.8533,0,0,-3.8289,-3.8294,-3.8328,-3.8374,-3.8384,-3.8436,-3.8351,-3.841,-3.8447,-3.8376,-3.8453,-3.8453,-3.8469,-3.8564,-3.8605,-3.8568,-3.8763,-3.8697,-3.8709,-3.8713,-3.8765,-3.8788,-3.8809,-3.854,-3.8539,-3.8538,0,0,-3.8442,-3.8452,-3.8527,-3.8539,-3.8557,-3.8543,-3.8561,-3.8567,-3.8564,-3.8641,-3.8588,-3.8632,-3.8705,-3.8719,-3.8735,-3.8893,-3.8851,-3.8907,-3.9,-3.9056,-3.9075,-3.9091,-3.9147,-3.9168,-3.8919,-3.8919,-3.8919,0,-3.8527,-3.8603,-3.857,-3.8632,-3.8654,-3.8592,-3.8668,-3.8681,-3.871,-3.8726,-3.8683,-3.8774,-3.878,-3.8877,-3.8916,-3.8931,-3.895,-3.8906,-3.9075,-3.9091,-3.9106,-3.9159,-3.918,-3.8925,-3.8925,-3.8924,-3.8923,0,-3.8706,-3.876,-3.8818,-3.8848,-3.8876,-3.8945,-3.8921,-3.8953,-3.8926,-3.8916,-3.8994,-3.9,-3.9038,-3.9059,-3.9033,-3.9152,-3.9128,-3.9081,-3.9006,-3.9136,-3.9186,-3.9206,-3.8935,-3.8933,-3.8931,-3.8929,0,0,-3.8922,-3.8933,-3.8955,-3.8968,-3.8982,-3.9023,-3.9088,-3.9126,-3.9154,-3.9175,-3.9229,-3.9292,-3.9248,-3.9267,-3.9242,-3.9291,-3.9415,-3.9237,-3.9237,-3.927,-3.9546,-3.9582,-3.9606,-3.9387,-3.9391,-3.9394,-3.9545,0,-3.9073,-3.9187,-3.9158,-3.927,-3.9319,-3.9261,-3.9318,-3.9333,-3.9326,-3.9365,-3.9356,-3.9402,-3.9341,-3.9352,-3.9398,-3.939,-3.947,-3.9379,-3.9436,-3.9438,-3.9434,-3.9632,-3.967,-3.9812,-3.9564,-3.9567,-3.957,0,-3.9265,-3.9295,-3.9412,-3.9418,-3.9438,-3.949,-3.9521,-3.9561,-3.9575,-3.9566,-3.9588,-3.9552,-3.9616,-3.954,-3.9627,-3.9566,-3.9587,-3.9587,-3.9591,-3.9596,-3.9512,-3.9642,-3.9857,-3.9879,-3.96,-3.9597,-3.9595,0,-3.9411,-3.9481,-3.956,-3.9572,-3.9581,-3.9619,-3.9624,-3.9635,-3.966,-3.9687,-3.9702,-3.9737,-3.9756,-3.9783,-3.9758,-3.9705,-3.9848,-3.977,-3.9842,-3.9843,-3.9875,-3.9873,-4.0097,-3.9889,-3.9889,-3.9888,-3.9888,0,-3.9583,-3.9657,-3.9625,-3.9674,-3.9755,-3.9721,-3.9802,-3.98,-3.981,-3.9857,-3.9808,-3.9853,-3.9817,-3.9858,-3.9838,-3.9913,-3.9922,-3.9916,-3.991,-3.992,-3.9921,-3.9934,-3.9923,-3.9894,-3.9893,-3.9891,-3.989,0,-3.9761,-3.9742,-3.9825,-3.9827,-3.9829,-3.9888,-3.9889,-3.9934,-3.9923,-3.9982,-3.9994,-3.9977,-4.0023,-4.0,-4.0048,-4.0035,-4.0131,-4.0111,-4.0126,-4.0121,-4.0194,-4.0188,-4.0434,-4.0464,-4.0237,-4.0239,-4.0241,0,-3.9872,-3.9927,-3.9936,-3.9964,-3.9973,-4.0019,-4.0043,-4.0012,-4.0039,-4.006,-4.0102,-4.0144,-4.0176,-4.0252,-4.0243,-4.0279,-4.026,-4.0344,-4.0265,-4.0274,-4.0261,-4.0258,-4.0263,-4.036,-4.0362,-4.0364,-4.0366,0,-4.0071,-4.0059,-4.0097,-4.0132,-4.0163,-4.0189,-4.0211,-4.0236,-4.0205,-4.0238,-4.0285,-4.031,-4.0359,-4.0401,-4.0432,-4.0436,-4.0396,-4.0391,-4.0409,-4.0421,-4.0427,-4.0425,-4.017,-4.0386,-4.0384,-4.0382,-4.0381,-4.038,-4.0218,-4.0265,-4.0278,-4.0322,-4.0335,-4.0356,-4.0398,-4.0393,-4.0431,-4.0469,-4.0448,-4.0502,-4.0515,-4.0553,-4.0562,-4.0604,-4.057,-4.0597,-4.0604,-4.0611,-4.0621,-4.0421,-4.0609,-4.0609,-4.0608,-4.0608,-4.0607,0,-4.0415,-4.042,-4.0461,-4.0493,-4.0528,-4.0488,-4.0509,-4.054,-4.0589,-4.0605,-4.0637,-4.0691,-4.0731,-4.0725,-4.0762,-4.0796,-4.0779,-4.0807,-4.0804,-4.0806,-4.0649,-4.0629,-4.082,-4.082,-4.082,-4.082,-4.082,-4.082,-4.0521,-4.0598,-4.0588,-4.067,-4.0675,-4.0729,-4.0744,-4.0763,-4.0775,-4.0838,-4.0871,-4.0867,-4.0874,-4.0911,-4.0946,-4.0943,-4.0959,-4.0994,-4.0984,-4.0838,-4.0817,-4.0797,-4.0778,-4.0997,-4.0998,-4.1137,-4.1139,-4.114]}]]